Date,TemperatureHighF,TemperatureAvgF,TemperatureLowF,DewpointHighF,DewpointAvgF,DewpointLowF,HumidityHigh,HumidityAvg,HumidityLow,PressureMaxIn,PressureMinIn,WindSpeedMaxMPH,WindSpeedAvgMPH,GustSpeedMaxMPH,PrecipitationSumIn
2013-5-1,65.5,53.9,44.3,48.9,41.7,37.0,99,66,41,30.42,30.30,4,1,17,0.01
2013-5-2,66.0,52.9,41.6,49.6,44.5,39.3,93,75,50,30.43,30.32,4,1,15,0.00
2013-5-3,63.4,52.6,43.1,49.3,43.5,38.0,92,72,51,30.39,30.29,5,1,20,0.00
2013-5-4,64.4,50.6,38.8,48.2,42.2,36.7,96,75,51,30.33,30.20,4,1,16,0.00
2013-5-5,60.6,48.0,38.2,46.6,40.8,36.6,95,77,55,30.23,30.15,4,1,20,0.00
2013-5-6,54.7,48.5,41.6,54.0,47.1,39.6,100,95,86,30.19,30.09,5,2,18,0.02
2013-5-7,57.5,54.7,51.5,57.5,54.5,51.2,100,99,98,30.10,29.94,6,2,25,1.97
2013-5-8,64.0,54.9,49.6,58.5,53.6,48.8,100,96,74,30.01,29.92,3,0,14,0.11
2013-5-9,68.4,56.9,47.9,59.8,53.7,47.4,99,90,70,30.02,29.91,4,1,10,0.00
2013-5-10,78.7,64.3,56.5,62.9,57.3,52.0,98,79,54,30.02,29.85,6,0,16,0.84
2013-5-11,67.0,60.3,56.1,65.2,58.6,51.8,100,94,76,29.86,29.72,5,1,13,0.21
2013-5-12,56.2,50.4,43.1,52.1,38.7,29.8,88,65,46,30.01,29.74,8,4,24,0.00
2013-5-13,51.5,44.0,39.2,34.0,29.8,27.3,71,58,42,30.18,30.01,7,2,20,0.00
2013-5-14,56.6,45.7,34.4,41.4,33.1,25.6,75,62,47,30.22,30.07,3,0,15,0.00
2013-5-15,78.7,61.3,48.4,67.3,51.8,37.4,80,71,61,30.07,29.72,3,1,12,0.00
2013-5-16,74.3,68.0,61.6,65.0,60.0,56.1,93,76,63,29.93,29.75,6,1,14,0.00
2013-5-17,76.3,66.1,55.3,62.0,55.0,48.0,94,69,49,30.13,29.92,2,0,12,0.00
2013-5-18,63.5,57.7,53.4,55.8,53.4,49.5,98,86,61,30.21,30.12,2,1,12,0.01
2013-5-19,63.8,58.4,53.6,63.8,58.2,53.0,100,99,98,30.21,30.10,2,0,9,0.03
2013-5-20,75.6,67.0,61.0,69.9,64.9,61.0,100,93,78,30.13,29.98,2,0,9,0.00
2013-5-21,82.0,70.9,62.6,73.5,67.6,62.3,100,90,72,29.98,29.85,1,0,7,0.00
2013-5-22,84.8,71.3,61.5,73.9,67.2,60.6,99,88,60,29.92,29.80,6,0,17,0.31
2013-5-23,73.4,64.3,60.7,68.9,63.0,59.9,99,96,82,29.87,29.72,2,0,6,0.19
2013-5-24,61.1,45.1,42.5,60.5,32.3,-99.9,99,79,73,30.15,29.73,7,-92,28,0.00
2013-5-25,59.2,34.6,39.8,43.0,-7.9,-99.9,85,40,50,30.18,30.10,7,-335,24,0.00
2013-5-26,64.9,53.1,41.6,45.7,39.3,34.6,78,61,45,30.25,30.15,5,1,18,0.00
2013-5-27,62.0,56.0,48.9,49.4,43.6,35.4,82,63,52,30.29,30.18,1,0,7,0.00
2013-5-28,71.8,61.9,53.4,65.4,56.5,46.2,94,83,69,30.21,30.08,3,0,9,0.01
2013-5-29,82.8,71.7,62.2,70.8,65.2,60.8,97,81,56,30.12,30.06,4,1,14,0.00
2013-5-30,85.7,75.5,66.0,72.6,67.0,62.4,90,76,58,30.17,30.08,1,0,8,0.00
2013-5-31,84.0,74.9,65.5,71.1,65.7,62.1,90,74,54,30.12,30.00,2,0,8,0.00